• In Uzbekistan
  • List of Countries
  • For 7 days
  • Water Temperature
  • Satellite Maps
  • Weather Map
  • Weather Widgets
  • user-avatar
    Login

    Hourly Weather Jitotol

    Today, 14 December, Friday

    Time Temperature Precipitation Wind Pressure Humidity
    00:00 +12°C° 0 mm 1 mps 609 mmHg 73%
    01:00 +12°C° 0 mm 1 mps 609 mmHg 72%
    02:00 +12°C° 0 mm 1 mps 609 mmHg 72%
    03:00 +11°C° 0 mm 1 mps 609 mmHg 71%
    04:00 +11°C° 0 mm 1 mps 610 mmHg 72%
    05:00 +11°C° 0 mm 1 mps 610 mmHg 73%
    06:00 +11°C° 0 mm 1 mps 610 mmHg 73%
    07:00 +13°C° 0 mm 1 mps 611 mmHg 69%
    08:00 +15°C° 0 mm 1 mps 612 mmHg 65%
    09:00 +18°C° 0 mm 1 mps 613 mmHg 61%
    10:00 +18°C° 0.1 mm 1 mps 614 mmHg 62%
    11:00 +18°C° 0.1 mm 2 mps 614 mmHg 63%
    12:00 +18°C° 0.1 mm 3 mps 614 mmHg 64%
    13:00 +17°C° 0.7 mm 3 mps 613 mmHg 71%
    14:00 +14°C° 0.7 mm 3 mps 613 mmHg 77%
    15:00 +13°C° 0.7 mm 3 mps 612 mmHg 84%
    16:00 +12°C° 0.5 mm 3 mps 612 mmHg 87%
    17:00 +12°C° 0.5 mm 2 mps 612 mmHg 90%
    18:00 +10°C° 0.5 mm 2 mps 612 mmHg 93%
    19:00 +9°C° 0.2 mm 2 mps 612 mmHg 93%
    20:00 +9°C° 0.2 mm 2 mps 613 mmHg 93%
    21:00 +9°C° 0.2 mm 2 mps 613 mmHg 93%
    22:00 +8°C° 0 mm 2 mps 613 mmHg 93%
    23:00 +8°C° 0 mm 2 mps 613 mmHg 93%

    Tomorrow, 15 December, Saturday

    Time Temperature Precipitation Wind Pressure Humidity
    00:00 +9°C° 0 mm 1 mps 613 mmHg 92%
    01:00 +9°C° 0 mm 1 mps 613 mmHg 92%
    02:00 +9°C° 0 mm 1 mps 613 mmHg 92%
    03:00 +9°C° 0 mm 1 mps 612 mmHg 93%
    04:00 +8°C° 0 mm 1 mps 612 mmHg 92%
    05:00 +8°C° 0 mm 1 mps 612 mmHg 92%
    06:00 +8°C° 0 mm 1 mps 612 mmHg 91%
    07:00 +9°C° 0 mm 1 mps 613 mmHg 89%
    08:00 +9°C° 0 mm 1 mps 614 mmHg 86%
    09:00 +10°C° 0 mm 1 mps 614 mmHg 83%
    10:00 +11°C° 0 mm 1 mps 615 mmHg 79%
    11:00 +12°C° 0 mm 2 mps 615 mmHg 75%
    12:00 +13°C° 0 mm 2 mps 615 mmHg 71%
    13:00 +13°C° 0 mm 2 mps 615 mmHg 70%
    14:00 +13°C° 0 mm 2 mps 614 mmHg 70%
    15:00 +13°C° 0 mm 2 mps 614 mmHg 69%
    16:00 +12°C° 0 mm 2 mps 613 mmHg 74%
    17:00 +9°C° 0 mm 2 mps 613 mmHg 79%
    18:00 +9°C° 0 mm 1 mps 612 mmHg 84%
    19:00 +9°C° 0 mm 1 mps 613 mmHg 85%
    20:00 +8°C° 0 mm 1 mps 613 mmHg 87%
    21:00 +8°C° 0 mm 1 mps 613 mmHg 89%
    22:00 +8°C° 0 mm 1 mps 613 mmHg 89%
    23:00 +7°C° 0 mm 1 mps 613 mmHg 89%

    Day after tomorrow, 16 December, Sunday

    Time Temperature Precipitation Wind Pressure Humidity
    00:00 +7°C° 0 mm 1 mps 613 mmHg 89%
    01:00 +7°C° 0 mm 1 mps 613 mmHg 89%
    02:00 +7°C° 0 mm 1 mps 612 mmHg 89%
    03:00 +7°C° 0 mm 1 mps 612 mmHg 90%
    04:00 +7°C° 0 mm 1 mps 612 mmHg 89%
    05:00 +7°C° 0 mm 1 mps 612 mmHg 88%
    06:00 +7°C° 0 mm 1 mps 612 mmHg 88%
    07:00 +8°C° 0 mm 1 mps 613 mmHg 82%
    08:00 +10°C° 0 mm 1 mps 615 mmHg 77%
    09:00 +11°C° 0 mm 1 mps 616 mmHg 72%
    10:00 +12°C° 0 mm 1 mps 616 mmHg 68%
    11:00 +13°C° 0 mm 2 mps 616 mmHg 65%
    12:00 +15°C° 0 mm 2 mps 616 mmHg 61%
    13:00 +14°C° 0 mm 2 mps 615 mmHg 64%
    14:00 +14°C° 0 mm 2 mps 614 mmHg 67%
    15:00 +13°C° 0 mm 2 mps 613 mmHg 69%
    16:00 +12°C° 0 mm 2 mps 613 mmHg 76%
    17:00 +11°C° 0 mm 1 mps 612 mmHg 83%
    18:00 +9°C° 0 mm 1 mps 612 mmHg 90%
    19:00 +9°C° 0 mm 1 mps 612 mmHg 91%
    20:00 +9°C° 0 mm 1 mps 613 mmHg 92%
    21:00 +8°C° 0 mm 1 mps 613 mmHg 92%
    22:00 +8°C° 0 mm 1 mps 613 mmHg 92%
    23:00 +8°C° 0 mm 1 mps 613 mmHg 92%

    17 December, Monday

    Time Temperature Precipitation Wind Pressure Humidity
    00:00 +8°C° 0 mm 1 mps 612 mmHg 92%
    01:00 +8°C° 0 mm 1 mps 612 mmHg 92%
    02:00 +8°C° 0 mm 1 mps 612 mmHg 92%
    03:00 +8°C° 0 mm 1 mps 611 mmHg 92%
    04:00 +8°C° 0 mm 1 mps 612 mmHg 92%
    05:00 +7°C° 0 mm 1 mps 612 mmHg 92%
    06:00 +7°C° 0 mm 1 mps 612 mmHg 93%
    07:00 +9°C° 0 mm 1 mps 613 mmHg 87%
    08:00 +10°C° 0 mm 1 mps 614 mmHg 81%
    09:00 +11°C° 0 mm 1 mps 615 mmHg 75%
    10:00 +13°C° 0 mm 1 mps 615 mmHg 71%
    11:00 +14°C° 0 mm 2 mps 615 mmHg 67%
    12:00 +15°C° 0 mm 2 mps 615 mmHg 62%
    13:00 +14°C° 0 mm 2 mps 614 mmHg 68%
    14:00 +13°C° 0 mm 2 mps 613 mmHg 74%
    15:00 +12°C° 0 mm 2 mps 612 mmHg 79%
    16:00 +10°C° 0 mm 2 mps 612 mmHg 83%
    17:00 +9°C° 0 mm 2 mps 612 mmHg 86%
    18:00 +9°C° 0 mm 1 mps 611 mmHg 90%
    19:00 +9°C° 0 mm 1 mps 612 mmHg 91%
    20:00 +8°C° 0 mm 1 mps 612 mmHg 92%
    21:00 +8°C° 0 mm 1 mps 612 mmHg 92%
    22:00 +8°C° 0 mm 1 mps 612 mmHg 93%
    23:00 +8°C° 0 mm 1 mps 611 mmHg 93%

    18 December, Tuesday

    Time Temperature Precipitation Wind Pressure Humidity
    00:00 +7°C° 0 mm 1 mps 611 mmHg 94%
    01:00 +7°C° 0 mm 1 mps 611 mmHg 94%
    02:00 +7°C° 0 mm 1 mps 610 mmHg 94%
    03:00 +7°C° 0 mm 1 mps 610 mmHg 94%
    04:00 +7°C° 0 mm 1 mps 610 mmHg 94%
    05:00 +7°C° 0 mm 1 mps 610 mmHg 94%
    06:00 +7°C° 0 mm 1 mps 610 mmHg 94%
    07:00 +9°C° 0 mm 1 mps 611 mmHg 87%
    08:00 +11°C° 0 mm 1 mps 612 mmHg 81%
    09:00 +12°C° 0 mm 1 mps 613 mmHg 74%
    10:00 +14°C° 0 mm 1 mps 613 mmHg 70%
    11:00 +15°C° 0 mm 1 mps 614 mmHg 65%
    12:00 +18°C° 0 mm 1 mps 614 mmHg 60%
    13:00 +18°C° 0 mm 1 mps 613 mmHg 62%
    14:00 +16°C° 0 mm 1 mps 612 mmHg 65%
    15:00 +16°C° 0 mm 1 mps 611 mmHg 67%
    16:00 +14°C° 0 mm 1 mps 611 mmHg 75%
    17:00 +13°C° 0 mm 1 mps 611 mmHg 83%
    18:00 +11°C° 0 mm 1 mps 610 mmHg 91%
    19:00 +11°C° 0 mm 1 mps 610 mmHg 93%
    20:00 +10°C° 0 mm 1 mps 611 mmHg 94%
    21:00 +10°C° 0 mm 1 mps 611 mmHg 95%
    22:00 +10°C° 0 mm 1 mps 610 mmHg 95%
    23:00 +9°C° 0 mm 1 mps 610 mmHg 95%

    19 December, Wednesday

    Time Temperature Precipitation Wind Pressure Humidity
    00:00 +8°C° 0 mm 0 mps 610 mmHg 95%
    01:00 +8°C° 0 mm 0 mps 610 mmHg 95%
    02:00 +8°C° 0 mm 0 mps 609 mmHg 95%
    03:00 +9°C° 0 mm 1 mps 609 mmHg 95%
    04:00 +9°C° 0 mm 1 mps 609 mmHg 94%
    05:00 +8°C° 0 mm 1 mps 609 mmHg 94%
    06:00 +8°C° 0 mm 1 mps 609 mmHg 94%
    07:00 +10°C° 0 mm 1 mps 610 mmHg 86%
    08:00 +12°C° 0 mm 1 mps 611 mmHg 78%
    09:00 +15°C° 0 mm 1 mps 613 mmHg 70%
    10:00 +16°C° 0 mm 1 mps 613 mmHg 63%
    11:00 +19°C° 0 mm 1 mps 613 mmHg 57%
    12:00 +20°C° 0 mm 1 mps 613 mmHg 51%
    13:00 +20°C° 0 mm 1 mps 613 mmHg 53%
    14:00 +20°C° 0 mm 1 mps 612 mmHg 56%
    15:00 +20°C° 0 mm 1 mps 611 mmHg 58%
    16:00 +18°C° 0 mm 1 mps 611 mmHg 68%
    17:00 +15°C° 0 mm 1 mps 610 mmHg 78%
    18:00 +13°C° 0 mm 1 mps 610 mmHg 89%
    19:00 +12°C° 0 mm 1 mps 610 mmHg 90%
    20:00 +12°C° 0 mm 1 mps 610 mmHg 92%
    21:00 +12°C° 0 mm 1 mps 611 mmHg 94%
    22:00 +11°C° 0 mm 1 mps 611 mmHg 94%
    23:00 +11°C° 0 mm 1 mps 611 mmHg 95%
    Show more